{"data":{"norad_id":58535,"epoch":"2026-09-20T11:46:15.760416Z","epoch_age_seconds":147591,"freshness":"FRESH","line1":"1 58535U 23192E   26263.49046019  .00002063  00000+0  72181-4 0  9998","line2":"2 58535  53.1590 233.4177 0001311  96.3130 263.8022 15.34396822155878","mean_motion":15.34396822,"eccentricity":0.0001311,"inclination_deg":53.159,"raan_deg":233.4177,"arg_perigee_deg":96.313,"mean_anomaly_deg":263.8022,"bstar":7.2181e-5,"rev_number":15587,"period_min":93.8479524562,"perigee_km":461.81585051532,"apogee_km":463.60952130296,"semimajor_km":6840.8496859091,"source":"CELESTRAK","updated_at":"2026-09-21T09:00:33.912618Z"}}